Location: Bonnie Creek
(38.0553°N, 89.5273°W)
Time: 00:18:32
(UTC+00:00)

Daily predictions for brighter satellites

Satellite Brightness Start Highest point End
(mag) Time Altitude Azimuth Time Altitude Azimuth Time Altitude Azimuth
Cosmos 1025 Rocket 3.3 00:00:09 10° NNW 00:04:28 72° W 00:08:44 10° S
CZ-4 R/B 4.2 00:00:42 10° SSE 00:04:38 65° ENE 00:08:35 10° N
MOS 1 Rocket 2.9 00:02:08 10° SSE 00:06:22 80° ENE 00:10:39 10° N
IRS-P3 4.4 00:02:15 10° S 00:07:34 74° WSW 00:12:55 10° NNW
Cosmos 2016 Rocket 4.3 00:06:41 10° SSW 00:12:51 70° W 00:19:10 10° N
Cosmos 909 Rocket 4.2 00:08:42 10° NNW 00:14:58 79° WSW 00:21:40 10° SSE
CZ-2D R/B 3.2 00:14:01 10° SSE 00:18:00 82° ENE 00:22:06 10° N
SPOT 1/Viking Rocket 3.4 00:16:03 10° SSE 00:21:11 83° ENE 00:26:22 10° N
Cosmos 1782 Rocket 3.6 00:17:32 10° S 00:21:57 84° W 00:26:25 10° N
Cosmos 1943 Rocket 3.7 00:18:06 10° SSE 00:20:25 18° SE 00:20:25 18° SE
ARIANE 5 R/B 4.3 00:19:00 10° SSW 00:23:27 33° W 00:27:57 10° NNW
Tiangong -1.6 00:21:19 10° WNW 00:24:23 44° N 00:24:28 43° N
IRAS Rocket 4.2 00:20:53 10° SSE 00:26:29 84° ENE 00:32:05 10° NNW
Cosmos 2061 Rocket 4.2 00:26:00 10° S 00:32:22 76° W 00:38:42 10° N
Cosmos 1140 Rocket 3.3 00:28:27 10° S 00:33:37 71° ESE 00:36:52 23° NNE
SL-19 R/B 4.0 00:28:26 10° SSE 00:33:49 82° ENE 00:39:04 10° NNW
COSMO-SKYMED 1 2.8 00:30:02 10° N 00:34:07 64° WNW 00:38:11 10° SSW
SL-4 R/B 3.8 00:31:45 10° NNW 00:33:09 16° N 00:33:09 16° N
Geosat 3.9 00:30:15 10° SSE 00:35:15 88° WSW 00:40:17 10° NNW
Meteor 2-12 Rocket 4.5 00:29:56 10° N 00:35:55 53° E 00:41:49 10° SSE
Cosmos 1833 Rocket 2.8 00:38:46 10° N 00:44:13 48° ENE 00:44:22 48° ENE
Cosmos 1975 Rocket 2.8 00:43:43 10° N 00:48:03 86° E 00:52:23 10° S
Delta 2 Rocket 3.5 00:45:00 10° WSW 00:48:35 57° SSW 00:48:35 57° SSW
Cosmos 1441 Rocket 4.4 00:46:14 10° NNW 00:49:19 35° W 00:52:23 10° SSW
ATLAS 5 CENTAUR R/B 3.9 00:48:48 10° N 00:49:26 13° N 00:49:26 13° N
VEP-3 4.5 00:47:11 10° WSW 00:52:34 22° SSW 00:55:45 14° SSE
Resurs 01 Rocket 4.0 00:58:12 12° N 00:58:12 12° N 00:58:34 10° N
Cosmos 1891 Rocket 4.5 00:53:32 10° S 00:59:55 90° W 01:06:25 10° N
Cosmos 2084 Rocket 3.9 01:00:51 10° SW 01:04:21 56° WSW 01:04:21 56° WSW
Cosmos 407 Rocket 4.1 01:09:55 10° SSW 01:13:35 47° SSW 01:13:35 47° SSW
NOSS 3-4 (A) 4.5 01:12:51 10° NW 01:19:54 58° WSW 01:28:01 10° SSE
NOSS 3-4 (C) 4.5 01:12:56 10° NW 01:19:59 58° WSW 01:28:05 10° SSE
Cosmos 1464 Rocket 3.9 01:14:29 10° S 01:28:39 - N 01:20:09 72° SSE
Cosmos 2278 Rocket 3.5 01:22:32 10° SSW 01:25:11 29° SSW 01:25:11 29° SSW
USA 281 3.2 01:39:32 76° W 01:39:32 76° W 01:45:59 10° NNW
SL-12 R/B(2) 4.4 01:33:47 10° SW 01:41:27 69° NW 01:44:53 41° NNE
Cosmos 1943 Rocket 4.2 02:00:06 10° SW 02:02:00 21° SW 02:02:00 21° SW
ACS3 Solar Sail 4.1 08:59:34 10° NNE 09:00:18 14° NNE 09:00:18 14° NNE
USA 234 4.4 09:14:50 10° E 09:20:37 35° NNE 09:20:57 35° NNE
Cosmos 2219 Rocket 4.1 09:42:01 19° NNE 09:42:01 19° NNE 09:43:36 10° NNE
NOSS 3-1 (C) 4.3 09:49:30 32° NE 09:49:30 32° NE 09:52:25 10° NE
COSMOS 2428 3.5 09:47:50 43° SE 09:48:50 48° ESE 09:54:16 10° NE
ADEOS Rocket 4.5 09:43:32 10° N 09:46:25 28° N 09:46:25 28° N
Cosmos 2322 3.9 09:56:05 66° ESE 09:56:05 66° ESE 10:01:40 10° NNE
Cosmos 921 Rocket 3.9 10:07:01 48° E 10:07:01 48° E 10:10:54 10° SSE
BlueWalker 3 4.4 10:09:09 17° NE 10:09:09 17° NE 10:10:53 10° ENE
Cosmos 1727 Rocket 3.8 10:06:18 10° S 10:12:28 89° W 10:18:43 10° N
Cosmos 2278 Rocket 4.0 10:18:50 10° N 10:23:39 28° ENE 10:28:27 10° ESE
Cosmos 2237 Rocket 3.6 10:19:16 10° S 10:24:27 37° ESE 10:29:37 10° NE
USA 267 4.0 10:23:34 10° NNE 10:29:12 32° NNW 10:29:41 32° NW
NOSS 3-1 (A) 3.1 10:29:28 30° S 10:31:36 63° ESE 10:36:43 10° NE
Meteor 1-24 Rocket 4.0 10:29:44 10° S 10:35:31 70° E 10:41:08 10° NNE
Cosmos 2173 Rocket 3.9 10:32:59 10° N 10:39:05 85° E 10:45:10 10° S
SJ-11-01 4.5 10:37:27 10° NNE 10:42:09 71° ESE 10:46:48 10° S
Cosmos 44 Rocket 4.0 10:39:37 20° NNW 10:43:05 55° ENE 10:48:08 10° SE
Cosmos 1000 Rocket 4.4 10:40:58 10° SSW 10:47:11 63° W 10:53:28 10° N
Cosmos 1908 Rocket 4.0 10:42:55 10° N 10:47:20 63° E 10:51:41 10° SSE
Meteor 2-5 Rocket 3.9 10:41:36 10° S 10:47:32 81° E 10:53:25 10° N
Gbstr 26 Del rocket 4.0 10:47:30 36° NW 10:48:00 37° NNW 10:53:16 10° NE
ACS3 Solar Sail 3.6 10:43:33 10° NNW 10:44:27 13° NNW 10:44:27 13° NNW
Cosmos 2123 Rocket 3.9 10:47:34 10° S 10:53:47 81° W 11:00:02 10° N
Cosmos 1340 Rocket 4.3 11:00:18 20° SSW 11:00:18 20° SSW 11:01:40 10° SSW
Cosmos 1943 Rocket 2.8 10:54:00 10° NNW 10:59:26 56° ENE 11:04:48 10° SE
CZ-2C R/B 3.6 10:55:29 10° N 10:58:22 25° NW 10:58:22 25° NW
Cosmos 1140 Rocket 3.3 10:55:52 10° NNW 11:01:00 83° WSW 11:06:05 10° SSE
SJ 16-02 4.3 10:59:31 10° NE 11:01:03 12° ENE 11:02:34 10° E
ARGOS 4.3 10:58:51 10° NNW 11:02:06 24° NW 11:02:06 24° NW
USA 234 3.2 10:56:41 10° SE 11:03:14 76° SW 11:08:18 18° NW
Meteor 2-21 Rocket 4.4 11:03:29 10° SSW 11:09:32 62° W 11:15:35 10° N
Cosmos 2016 Rocket 4.0 11:04:07 10° N 11:10:32 89° E 11:16:52 10° S
TIMED 4.4 11:06:25 10° NNW 11:10:42 87° ENE 11:14:56 10° SSE
Iridium 4 Rocket 2.9 11:08:28 10° N 11:12:45 89° W 11:16:52 10° S
Cosmos 1484 Rocket 3.8 11:17:52 10° NNE 11:21:17 44° E 11:24:40 10° S
COSMO-SKYMED 1 2.8 11:17:13 10° SSE 11:21:18 66° ENE 11:25:23 10° N
SL-16 R/B 4.3 11:17:59 10° SSE 11:22:54 31° ESE 11:27:50 10° NE
Cosmos 2219 Rocket 4.2 11:23:45 10° NW 11:23:45 10° NW 11:24:01 10° NW
Timation 2 Rocket 4.0 11:17:03 10° NNW 11:23:39 73° WSW 11:29:54 10° SSE
IRS-1D 3.5 11:19:43 10° N 11:24:31 52° WNW 11:29:16 10° SSW
SKYMED 2 3.5 11:21:38 10° S 11:25:57 75° WSW 11:30:18 10° NNW
USA 276 1.8 11:27:18 25° NW 11:28:38 69° NNE 11:31:28 10° ESE
Cosmos 2061 Rocket 4.1 11:25:39 10° N 11:31:52 85° E 11:38:04 10° S
COSMOS 2428 3.8 11:29:57 15° W 11:33:17 24° NW 11:37:49 10° N
NOSS 0 Rocket 4.4 11:32:15 10° SW 11:37:51 37° WNW 11:43:30 10° N
NOSS 3-1 (C) 4.5 11:36:52 14° WNW 11:38:44 17° NW 11:42:11 10° N
Cosmos 1371 Rocket 4.5 11:36:08 10° S 11:41:18 68° ESE 11:46:35 10° NNE
Cosmos 407 Rocket 3.4 11:38:41 10° NNW 11:43:44 66° WSW 11:48:46 10° S
Helios 1A Rocket 2.9 11:42:07 10° S 11:45:18 38° W 11:48:29 10° NNW
BlueWalker 3 1.7 11:42:58 12° NW 11:46:14 70° SW 11:49:48 10° SE
IGS 5A 3.7 11:48:01 10° NNE 11:52:02 71° ESE 11:56:01 10° S
Cosmos 1980 4.2 11:47:01 10° SW 11:52:09 36° WNW 11:57:21 10° N
